Overview Statistics Trail Chart Weather Telemetry Raw packets
 

This is the latest recevied weather packets stored in our database for station/object KB4MLW-13. If no packets are shown the sender has not sent any weather packets the latest 10 day(s).

<< 102 103 104 105 106 107 108 >>
Time Temp. Humidity Pressure Rain* Wind** Luminosity Snow
1788205798 32.78° C 60% 1001.7 hPa 0 mm - - -
1788205709 32.78° C 57% 1001.9 hPa 0 mm - - -
1788205648 32.78° C 57% 1001.7 hPa 0 mm - - -
1788205588 32.78° C 60% 1001.9 hPa 0 mm - - -
1788205528 33.33° C 59% 1001.7 hPa 0 mm - - -
1788205439 33.33° C 60% 1001.8 hPa 0 mm - - -
1788205349 33.33° C 59% 1001.8 hPa 0 mm - - -
1788205288 33.33° C 57% 1001.9 hPa 0 mm - - -
1788205228 33.33° C 57% 1001.9 hPa 0 mm - - -
1788205168 33.89° C 57% 1001.7 hPa 0 mm - - -
1788205108 33.89° C 57% 1001.7 hPa 0 mm - - -
1788205048 33.89° C 57% 1001.8 hPa 0 mm - - -
1788204958 33.89° C 58% 1001.7 hPa 0 mm - - -
1788204898 33.89° C 57% 1001.7 hPa 0 mm - - -
1788204838 33.89° C 58% 1001.5 hPa 0 mm - - -
1788204778 33.89° C 59% 1001.9 hPa 0 mm - - -
1788204689 33.33° C 63% 1002 hPa 0 mm - - -
1788204629 32.78° C 61% 1001.9 hPa 0 mm - - -
1788204568 32.78° C 60% 1001.9 hPa 0 mm - - -
1788204509 33.33° C 58% 1001.9 hPa 0 mm - - -
1788204448 33.33° C 59% 1002 hPa 0 mm - - -
1788204388 33.33° C 60% 1001.9 hPa 0 mm - - -
1788204328 33.33° C 59% 1002.1 hPa 0 mm - - -
1788204268 33.33° C 58% 1001.8 hPa 0 mm - - -
1788204179 33.33° C 59% 1001.9 hPa 0 mm - - -

* Rain latest hour (hover to see other rain measurements)
** Current wind speed in m/s (hover to see current wind gust speed)